Flag Weather past 2 weeks in Rapid City, South Dakota, U.S.A.

Now
26 °F

Passing clouds.


Feels Like: 12 °F
Forecast: 23 / 31 °F
Wind: 23 mph from North

Location: Ellsworth Air Force Base

Current Time: Nov 26, 2014 at 2:08:32 AM

Latest Report: Nov 26, 2014 at 12:58 AM


Visibility: 10 mi

Pressure: 30.21 "Hg

Humidity: 79%

Dew point: 21 °F

Location of Rapid CityLocation

Historic Weather in Rapid City — Graph

°F

Rapid City temperature yesterday

Maximum temperature yesterday: 37 °F (at 12:58 PM)
Minimum temperature yesterday: 26 °F (at 1:58 AM)
Average temperature yesterday: 32 °F

Past Weeks' High & Low Weather Summary

 TemperatureHumidityPressure
High56 °F (Nov 22, 12:58 PM)94% (Nov 20, 8:58 AM)30.81 "Hg (Nov 20, 8:58 AM)
Low-9 °F (Nov 13, 3:58 AM)33% (Nov 21, 12:58 PM)29.41 "Hg (Nov 22, 7:59 PM)
Average19 °F71%30.16 "Hg
* Reported Midnight between Nov 10 and Nov 11 — Nov 26 12:58 AM, Rapid City, Weather by CustomWeather, © 2014

Note: Actual official high and low records may vary slightly from our data, if they occured in-between our weather recording intervals... More about our weather records

Advertising

Rapid City weather history for previous 24 hours

 ConditionsComfort  
Time TempWeatherWind HumidityBarometerVisibility
12:58 AM
Nov 26
26 °FPassing clouds.23 mph79%30.21 "Hg10 mi
11:58 PM
Nov 25
27 °FOvercast.22 mph78%30.19 "Hg10 mi
10:58 PM31 °FMostly cloudy.31 mph75%30.11 "Hg10 mi
9:58 PM32 °FMostly cloudy.29 mph72%30.08 "Hg10 mi
8:58 PM33 °FPassing clouds.23 mph70%30.03 "Hg10 mi
7:58 PM32 °FPassing clouds.33 mph69%29.99 "Hg10 mi
6:58 PM35 °FPassing clouds.33 mph68%29.96 "Hg10 mi
5:58 PM36 °FPassing clouds.17 mph65%29.94 "Hg10 mi
4:58 PM36 °FPassing clouds.25 mph68%29.92 "Hg10 mi
3:58 PM36 °FOvercast.25 mph75%29.92 "Hg10 mi
2:58 PM35 °FOvercast.22 mph87%29.88 "Hg10 mi
1:58 PM37 °FSunny.24 mph77%29.84 "Hg10 mi
12:58 PM37 °FLight rain. Partly sunny.13 mph81%29.84 "Hg7 mi
11:58 AM34 °FLight snow. More clouds than sun.6 mph91%29.83 "Hg7 mi
11:02 AM36 °FLight snow. Mostly cloudy.8 mph75%29.77 "Hg1 mi
10:52 AM36 °FLight snow. Low clouds.9 mph75%29.77 "Hg1 mi
9:58 AM33 °FMostly cloudy.6 mph70%29.89 "Hg9 mi
8:58 AM32 °FPartly sunny.5 mph68%29.89 "Hg9 mi
7:58 AM31 °FBroken clouds.6 mph70%29.91 "Hg10 mi
6:58 AM29 °FOvercast.5 mph73%29.94 "Hg10 mi
5:58 AM31 °FMostly cloudy.2 mph65%29.95 "Hg10 mi
4:58 AM28 °FPassing clouds.6 mph71%29.98 "Hg10 mi
3:58 AM26 °FPassing clouds.No wind74%30.01 "Hg10 mi
2:58 AM27 °FClear.5 mph70%30.04 "Hg10 mi
Weather by CustomWeather, © 2014

See weather overviewHow to use our weather pages